Temperature
16 16 17 17 17 17 17 17 17 17 17 18 18 18 18 18 19 19 18 18 18 18 18 18 18 18 18 18 18 18 18 18 18 18 18 18 18 18 18 18 17 17 17
16 16 16 16 17 17 17 17 17 17 17 18 18 18 18 19 19 19 18 18 18 18 18 18 18 18 18 18 18 18 18 18 18 18 18 18 18 18 18 17 17 17 17
15 15 16 16 16 16 16 17 17 17 17 17 18 18 18 19 19 19 18 18 18 18 18 18 18 18 18 18 18 18 18 18 18 17 17 18 17 17 17 17 17 17 17
15 15 15 15 16 16 16 16 17 17 17 17 17 18 18 18 19 19 18 18 18 18 18 18 18 18 18 18 18 18 18 18 18 17 17 17 17 17 17 17 17 17 17
14 14 15 15 15 15 16 16 16 16 17 17 17 17 18 18 18 18 18 18 18 18 18 18 18 18 18 18 18 18 18 17 17 17 17 17 17 17 17 17 17 17 17
14 14 14 14 15 15 15 16 16 16 16 17 17 17 17 17 18 18 18 18 18 18 18 18 18 18 18 18 18 18 17 17 17 17 17 17 17 17 17 17 17 17 17
13 14 14 14 14 15 15 15 15 16 16 16 16 17 17 17 18 18 18 18 19 18 18 18 18 18 18 18 18 18 18 17 17 17 17 17 17 17 17 17 17 17 16
13 13 13 14 14 14 15 15 15 15 16 16 16 16 16 17 17 18 18 18 18 18 18 18 18 18 18 18 18 18 18 17 17 17 17 17 17 17 17 17 17 16 16
13 13 13 13 14 14 14 14 15 15 15 16 16 16 16 17 17 18 18 18 18 18 18 18 18 18 18 18 18 18 18 18 17 17 17 17 17 17 17 16 16 16 16
13 13 13 13 13 13 14 14 14 15 15 15 15 16 16 17 17 17 18 18 18 18 18 18 18 18 18 18 18 18 18 18 17 17 17 17 17 17 16 16 16 16 16
13 13 13 13 13 13 13 14 14 14 14 15 15 15 16 16 16 17 17 18 18 18 18 18 18 18 18 18 18 18 18 18 18 17 17 17 17 17 16 16 16 16 16
12 12 12 13 13 13 13 13 14 14 14 14 15 15 15 16 16 16 16 17 18 18 18 18 18 18 18 18 18 18 18 18 18 18 17 17 17 17 16 16 16 16 16
12 12 12 12 12 13 13 13 13 14 14 14 14 15 15 15 16 16 16 16 17 17 17 17 18 18 18 18 18 18 18 18 18 18 17 17 17 17 16 16 16 16 16
12 12 12 12 12 12 13 13 13 13 13 14 14 14 15 15 15 15 15 16 16 16 17 17 17 18 17 18 18 17 17 18 18 17 17 17 17 17 16 16 16 16 16
11 11 12 12 12 12 12 13 13 13 13 13 14 14 14 15 15 15 15 15 16 16 16 17 17 17 17 17 17 17 17 17 17 17 17 17 17 17 16 16 16 16 16
11 11 12 12 12 12 12 12 12 13 13 13 14 14 14 14 15 15 15 15 15 15 16 16 17 17 17 17 17 17 17 17 17 17 17 17 17 17 16 16 16 16 15
11 11 11 11 12 12 12 12 12 12 13 13 13 13 14 14 14 15 15 15 15 15 15 16 16 16 16 16 16 17 17 17 17 17 17 17 17 16 16 16 16 16 15
11 11 11 11 11 11 11 12 12 12 12 13 13 13 13 13 14 14 14 14 15 15 15 15 15 16 16 16 16 16 16 16 16 17 17 17 17 16 16 16 16 15 15
11 11 11 11 11 11 11 11 12 12 12 12 13 13 13 13 13 14 14 14 14 14 14 14 15 15 15 15 16 16 16 16 16 16 16 16 16 16 16 16 15 15 15
11 11 11 11 11 11 11 11 12 12 12 12 12 13 13 13 13 13 14 14 14 14 14 14 14 14 15 15 15 15 15 15 15 15 16 16 16 15 15 15 15 15 15
11 11 11 11 11 11 11 11 12 12 12 12 12 12 12 13 13 13 13 14 14 14 14 14 14 14 14 14 15 15 15 15 15 15 15 15 15 15 15 15 14 14 14
11 11 11 11 11 11 11 11 11 11 12 12 12 12 12 12 13 13 13 13 13 13 14 14 14 14 14 14 14 14 14 14 14 14 14 14 14 14 14 14 14 14 14
11 11 11 11 11 11 11 11 11 11 11 12 12 12 12 12 12 12 13 13 13 13 13 13 14 14 14 14 14 14 14 14 14 14 14 14 14 14 14 14 14 14 13
11 11 11 11 11 11 11 11 11 11 11 11 11 12 12 12 12 12 12 13 13 13 13 13 13 14 14 14 14 14 14 14 14 13 13 13 13 13 13 13 13 13 13
12 12 12 11 11 11 11 11 11 11 11 11 11 11 12 12 12 12 12 12 13 13 13 13 13 13 14 14 14 13 13 13 13 13 13 13 13 12 12 12 12 12 12
12 12 12 12 12 11 11 11 11 11 11 11 11 11 11 12 12 12 12 12 12 13 13 13 13 13 13 13 13 13 13 13 13 12 12 12 12 12 12 12 12 12 12
Wind_Speed
4 4 3 4 5 5 4 3 3 5 6 6 6 5 5 6 6 9 12 16 15 13 11 11 10 10 10 9 9 10 11 11 12 12 12 12 11 11 11 10 10 9 9
3 4 4 4 4 6 6 5 5 5 6 5 5 5 4 4 5 9 13 14 16 15 13 12 11 11 11 11 10 10 11 12 12 12 12 12 11 11 10 9 9 8 8
4 3 4 4 4 6 7 5 5 4 6 5 5 5 4 3 5 7 13 14 14 15 15 14 13 12 12 12 12 12 12 12 12 12 12 12 11 11 10 9 8 8 7
6 3 3 4 4 5 4 5 5 5 5 5 4 4 5 4 4 4 9 12 14 14 15 16 15 14 14 13 13 13 13 13 13 13 12 12 11 11 10 9 8 7 6
8 4 3 3 4 3 4 5 5 5 6 6 5 5 5 5 5 5 5 8 12 15 16 17 18 17 16 15 15 14 14 14 14 13 13 12 12 11 10 9 8 7 6
8 5 4 4 3 3 4 4 5 5 5 6 6 5 5 5 4 4 5 4 7 13 16 17 16 16 17 17 16 16 16 15 15 14 14 13 12 11 10 9 8 7 6
7 5 5 4 3 3 4 5 4 5 5 4 3 3 3 5 4 5 4 4 4 7 12 17 16 15 15 17 17 17 17 17 16 16 15 14 13 12 11 10 9 7 7
7 6 5 4 4 3 4 5 4 4 3 4 3 2 2 3 4 7 5 5 5 5 7 15 16 17 16 15 17 19 19 18 18 17 16 15 14 13 12 11 9 8 7
5 4 5 5 5 4 3 4 4 5 4 4 5 4 3 4 3 4 5 5 5 5 6 6 12 16 19 18 18 21 21 20 19 18 17 16 15 14 13 12 10 9 8
6 5 4 5 5 4 4 4 4 3 4 5 5 5 4 2 3 2 3 4 6 6 7 6 7 10 15 18 19 23 24 22 20 18 18 17 16 16 14 13 11 10 9
6 5 5 5 5 4 5 4 4 4 4 5 4 3 4 3 3 2 3 3 4 4 5 5 4 5 10 15 18 23 26 24 22 20 18 18 17 17 16 14 13 11 10
5 6 6 5 5 4 5 5 4 5 5 6 5 5 4 4 4 4 4 3 4 4 3 3 5 5 7 13 18 24 27 26 24 22 19 18 18 17 17 16 14 13 12
5 6 7 6 5 5 5 5 5 5 5 6 6 6 6 6 4 4 4 3 3 3 2 3 4 3 6 10 14 25 27 27 25 23 21 19 18 18 17 17 15 14 13
5 6 7 6 6 5 6 5 5 5 5 5 6 6 5 6 5 5 5 4 3 3 3 4 2 4 4 7 14 24 21 27 26 24 22 20 19 18 17 17 16 15 14
6 7 7 6 6 5 5 5 4 5 5 5 5 5 5 5 5 5 5 5 5 5 6 5 4 4 4 6 15 17 17 24 25 25 23 22 21 19 18 18 17 16 15
6 7 7 7 6 5 5 4 5 5 5 5 5 5 5 4 5 5 5 5 5 5 5 4 5 4 4 5 13 15 16 23 26 25 24 23 22 21 19 18 17 16 16
6 7 7 6 6 5 5 5 5 5 5 5 5 5 5 5 5 5 5 5 6 5 6 4 3 3 4 4 6 8 11 15 18 24 24 24 23 22 21 20 19 18 17
7 7 7 7 6 6 5 5 6 6 5 5 5 5 5 4 5 5 5 6 6 6 6 6 4 4 5 5 5 6 6 10 12 20 23 23 23 23 22 21 20 19 18
7 7 7 7 7 7 7 6 5 5 6 5 5 5 5 4 5 4 5 6 5 6 5 5 4 4 4 3 4 4 5 4 8 14 19 20 21 22 22 22 21 20 19
7 7 7 7 7 7 7 7 7 6 6 6 5 5 5 5 5 4 5 6 6 6 6 5 4 4 3 3 4 5 4 4 5 7 10 14 17 19 21 21 21 21 20
7 6 7 6 6 6 6 7 7 7 7 7 6 5 5 5 5 4 4 4 5 5 5 5 5 4 5 5 5 5 6 5 4 5 6 7 9 10 13 17 19 20 20
6 6 6 6 6 6 7 8 8 7 7 7 6 6 5 5 5 6 7 7 7 6 6 6 6 6 7 6 5 6 6 6 4 5 6 6 6 8 8 12 17 20 20
5 5 6 6 6 6 7 8 10 8 8 7 6 6 6 4 4 3 5 7 9 11 10 7 7 7 7 8 9 8 8 7 4 6 6 5 5 6 6 12 18 20 20
5 5 6 6 6 6 7 7 11 8 7 7 6 6 5 4 3 3 4 5 5 7 9 9 8 7 7 7 9 9 8 5 4 4 4 4 4 4 5 9 16 18 19
5 5 5 6 6 5 4 5 8 7 7 7 5 5 4 3 3 4 4 5 6 5 7 10 10 9 10 10 9 7 8 8 5 4 3 3 4 4 4 4 10 17 18
6 6 5 5 5 5 3 3 7 5 6 6 6 5 4 3 4 4 4 5 6 5 3 4 6 7 8 10 13 11 10 9 6 4 4 5 5 4 4 3 5 10 13
Wind_Direction
232 233 225 225 222 226 231 236 240 260 264 272 269 249 225 207 185 154 157 164 166 170 175 179 175 174 173 170 163 160 155 152 149 145 141 138 133 130 127 123 120 116 115
234 232 237 228 225 225 220 221 229 247 264 261 270 270 253 208 194 157 157 171 173 174 178 180 179 177 175 171 164 162 157 156 155 152 148 143 140 138 136 133 129 125 121
258 241 231 237 229 230 223 216 232 242 255 258 265 277 276 245 212 176 166 169 175 180 182 184 180 179 179 176 170 168 166 164 161 159 157 152 148 148 147 144 140 135 129
300 285 254 246 241 229 215 209 215 229 240 247 251 264 270 263 242 212 176 173 173 179 187 188 183 181 182 183 179 175 173 171 168 165 162 160 158 158 156 154 150 143 138
321 311 287 259 253 241 228 230 215 214 227 233 238 237 256 268 248 235 206 189 179 175 179 187 185 183 184 186 185 182 179 176 174 171 168 166 166 166 164 162 158 154 151
314 310 294 281 266 248 242 236 229 219 223 223 232 234 237 248 254 247 237 210 182 176 175 177 181 186 187 186 187 187 183 182 180 178 177 176 174 172 171 171 169 168 168
313 300 294 296 284 257 250 248 236 228 224 211 210 237 256 256 257 250 238 226 197 187 171 170 177 180 187 190 189 189 188 187 185 184 185 184 182 179 179 178 178 179 179
319 313 305 303 291 270 258 256 247 229 227 208 192 182 220 249 251 241 234 223 208 191 181 175 182 178 180 184 192 190 191 189 189 190 190 188 186 184 184 184 187 188 183
319 321 314 306 300 286 263 259 247 234 228 222 207 188 187 212 217 240 233 232 219 192 192 186 187 184 180 180 184 191 190 189 191 192 192 191 189 189 189 191 192 191 185
337 328 320 314 303 297 283 267 255 240 229 230 226 225 224 190 175 223 254 238 232 211 200 200 195 186 182 177 179 185 187 188 190 193 194 194 194 193 193 193 193 193 190
331 332 330 321 311 300 293 285 279 252 231 229 225 218 227 235 223 192 227 246 252 238 206 196 200 192 184 175 173 180 184 186 189 192 194 196 196 195 195 195 195 194 191
331 340 335 330 318 311 307 300 288 273 251 238 234 224 211 203 204 203 211 219 231 246 235 217 203 198 184 174 174 176 182 186 188 190 193 194 196 196 196 196 196 194 191
333 332 333 322 314 307 301 297 285 275 264 250 237 232 225 222 211 204 208 211 222 241 235 241 220 191 191 169 171 173 183 186 187 189 191 192 194 194 197 198 196 194 191
321 324 321 310 305 302 301 294 284 277 273 263 253 243 231 229 220 211 201 194 206 233 239 245 239 203 199 175 172 171 184 187 187 189 190 191 191 191 194 196 195 194 190
325 329 316 311 307 299 291 291 282 280 278 272 264 255 236 225 222 217 208 200 191 208 226 224 222 220 203 180 170 177 179 189 188 188 190 191 190 189 191 192 190 189 187
321 315 319 319 311 306 301 296 292 281 278 270 259 251 243 227 220 215 212 211 207 204 221 221 217 223 210 201 181 188 186 186 189 189 190 190 189 189 189 187 186 184 183
322 323 324 326 324 320 313 308 299 293 290 286 276 261 250 235 222 213 210 209 212 204 220 233 216 222 212 211 192 194 185 178 190 191 190 189 188 187 185 185 183 181 179
333 332 335 336 334 329 322 312 311 312 302 299 293 281 268 256 230 220 209 211 213 210 208 220 218 211 213 201 192 195 184 180 182 191 190 188 187 185 184 183 180 179 178
336 338 340 342 341 336 329 324 321 315 307 298 292 286 273 265 250 231 215 214 213 216 207 211 215 208 211 196 185 189 179 174 177 181 186 187 186 184 182 181 180 179 178
332 331 335 336 338 341 343 350 339 321 312 305 298 290 276 263 257 247 231 220 212 212 207 205 211 203 201 193 178 177 179 175 170 167 174 179 183 182 181 180 179 178 176
327 327 330 331 333 334 350 353 335 323 316 308 303 297 287 266 255 254 250 231 217 213 206 203 206 205 198 184 190 182 182 172 172 164 159 165 166 172 177 177 177 176 175
312 317 322 324 326 334 342 339 334 318 310 303 300 297 286 268 254 249 249 246 229 220 212 207 211 210 206 197 185 180 173 171 185 174 162 168 166 171 171 174 177 176 175
316 319 317 320 322 327 327 329 331 318 302 299 297 297 295 287 277 265 257 251 240 234 227 216 214 215 206 195 186 187 186 179 178 169 155 165 161 165 159 167 171 174 175
310 310 309 312 313 320 327 331 330 314 301 299 299 297 290 290 303 304 283 270 251 233 229 226 221 221 214 195 189 189 180 158 131 150 146 153 155 154 149 156 170 172 173
292 291 297 300 301 303 316 328 332 313 309 309 311 315 311 295 308 312 286 274 266 250 239 228 213 210 200 191 178 168 166 165 166 170 154 142 146 135 136 151 166 169 169
277 284 287 283 285 292 292 313 331 313 317 319 319 312 309 314 314 312 280 271 266 262 247 222 210 206 200 193 187 185 179 175 162 167 172 151 149 142 137 142 158 166 168
Height
1517 1517 1517 1519 1520 1522 1523 1525 1527 1528 1529 1531 1532 1534 1535 1536 1537 1538 1539 1541 1542 1543 1544 1545 1546 1548 1549 1551 1552 1554 1556 1558 1560 1562 1563 1565 1566 1568 1569 1570 1571 1572 1573
1514 1514 1514 1515 1516 1518 1519 1521 1523 1525 1526 1528 1529 1531 1532 1534 1535 1536 1537 1539 1540 1541 1542 1543 1545 1546 1548 1550 1552 1554 1556 1558 1560 1562 1563 1565 1566 1568 1569 1570 1571 1572 1573
1512 1512 1512 1512 1513 1514 1515 1517 1519 1521 1522 1525 1526 1528 1530 1531 1533 1534 1535 1536 1538 1539 1540 1542 1543 1545 1547 1549 1551 1553 1555 1557 1559 1561 1563 1564 1566 1567 1569 1570 1571 1572 1573
1510 1509 1509 1509 1510 1511 1512 1513 1515 1517 1518 1520 1522 1524 1526 1528 1530 1531 1532 1534 1535 1536 1538 1540 1541 1543 1545 1547 1549 1551 1554 1556 1558 1560 1562 1564 1565 1567 1568 1569 1570 1571 1572
1507 1507 1506 1506 1507 1507 1508 1510 1511 1513 1515 1516 1519 1520 1522 1524 1526 1528 1529 1531 1532 1533 1535 1537 1539 1541 1543 1545 1548 1550 1552 1554 1557 1559 1561 1563 1564 1566 1567 1569 1570 1571 1571
1504 1504 1504 1504 1504 1504 1505 1506 1507 1509 1511 1513 1515 1516 1518 1520 1522 1524 1526 1528 1530 1531 1532 1534 1537 1539 1541 1543 1545 1548 1550 1553 1555 1557 1559 1561 1563 1565 1566 1568 1569 1570 1571
1502 1501 1501 1501 1501 1501 1502 1503 1504 1505 1507 1509 1512 1513 1514 1516 1518 1520 1522 1524 1526 1528 1530 1531 1533 1536 1538 1540 1543 1545 1548 1550 1553 1555 1557 1559 1561 1563 1565 1566 1567 1569 1569
1499 1499 1498 1498 1498 1498 1499 1499 1500 1502 1503 1505 1507 1509 1511 1513 1513 1515 1518 1520 1522 1524 1526 1527 1529 1532 1535 1537 1540 1542 1545 1548 1550 1553 1555 1557 1559 1561 1563 1565 1566 1567 1568
1498 1497 1496 1495 1495 1496 1496 1496 1497 1498 1499 1501 1504 1506 1507 1507 1509 1511 1513 1516 1518 1520 1522 1524 1526 1528 1530 1533 1537 1539 1542 1545 1547 1550 1553 1555 1557 1559 1561 1563 1564 1565 1566
1496 1495 1494 1493 1493 1493 1493 1494 1494 1495 1496 1497 1500 1502 1504 1504 1506 1507 1509 1511 1514 1516 1518 1521 1523 1525 1527 1530 1532 1536 1539 1542 1544 1547 1550 1552 1555 1557 1559 1561 1562 1564 1565
1495 1493 1492 1491 1491 1490 1491 1491 1491 1492 1492 1493 1495 1497 1499 1501 1502 1504 1505 1507 1509 1511 1514 1517 1519 1522 1525 1526 1529 1532 1535 1538 1541 1544 1547 1550 1552 1554 1556 1558 1560 1561 1563
1493 1492 1490 1489 1488 1488 1488 1488 1488 1488 1489 1490 1491 1492 1494 1496 1498 1500 1502 1503 1505 1507 1510 1511 1515 1517 1521 1523 1526 1528 1532 1535 1538 1541 1544 1546 1549 1552 1554 1556 1558 1559 1560
1492 1490 1488 1487 1486 1485 1485 1485 1485 1485 1485 1486 1487 1488 1490 1492 1494 1497 1499 1500 1501 1503 1505 1507 1510 1512 1516 1519 1522 1524 1528 1531 1534 1537 1540 1543 1546 1548 1551 1553 1555 1556 1558
1491 1489 1487 1485 1484 1483 1482 1482 1481 1481 1482 1482 1483 1484 1485 1487 1490 1492 1494 1496 1498 1499 1500 1502 1505 1508 1511 1515 1517 1521 1524 1527 1531 1533 1536 1539 1542 1545 1547 1550 1552 1553 1555
1490 1487 1485 1483 1482 1481 1479 1479 1478 1478 1478 1479 1479 1480 1481 1482 1484 1487 1489 1491 1494 1495 1496 1498 1501 1504 1507 1509 1512 1516 1519 1523 1526 1529 1532 1535 1538 1541 1544 1546 1548 1550 1552
1488 1486 1484 1482 1480 1478 1477 1476 1476 1475 1475 1475 1476 1476 1477 1478 1479 1481 1484 1486 1488 1491 1492 1494 1497 1499 1502 1504 1507 1510 1514 1518 1522 1525 1528 1531 1534 1537 1540 1542 1545 1547 1549
1487 1485 1483 1480 1478 1476 1475 1474 1473 1473 1472 1472 1472 1473 1473 1474 1475 1477 1479 1481 1483 1486 1487 1490 1492 1494 1497 1499 1502 1505 1509 1512 1516 1520 1523 1526 1529 1532 1535 1538 1540 1543 1545
1486 1484 1481 1479 1477 1475 1474 1472 1471 1470 1470 1469 1469 1470 1470 1471 1472 1473 1474 1476 1478 1480 1483 1485 1487 1489 1492 1494 1497 1500 1503 1507 1510 1514 1518 1521 1525 1528 1531 1533 1536 1539 1541
1485 1483 1480 1478 1475 1473 1472 1470 1469 1468 1467 1467 1467 1467 1467 1468 1468 1469 1470 1471 1473 1475 1478 1480 1482 1484 1487 1490 1492 1494 1498 1501 1505 1508 1512 1516 1519 1523 1526 1529 1532 1534 1537
1484 1482 1479 1477 1474 1472 1470 1468 1467 1466 1465 1464 1464 1464 1464 1464 1465 1465 1466 1467 1469 1471 1473 1475 1477 1479 1482 1484 1487 1489 1492 1496 1499 1502 1506 1509 1513 1517 1520 1523 1526 1529 1532
1483 1481 1478 1475 1473 1471 1469 1467 1465 1463 1462 1462 1462 1461 1461 1461 1461 1462 1462 1463 1465 1466 1468 1470 1472 1474 1476 1479 1481 1484 1487 1490 1494 1497 1500 1503 1507 1510 1514 1517 1521 1524 1527
1482 1480 1477 1474 1472 1470 1468 1465 1463 1461 1460 1459 1458 1458 1458 1457 1457 1458 1458 1459 1461 1462 1463 1465 1467 1469 1471 1473 1476 1479 1482 1485 1488 1491 1494 1498 1501 1504 1508 1511 1515 1518 1521
1481 1479 1476 1473 1471 1468 1466 1464 1461 1459 1457 1456 1456 1455 1455 1454 1454 1454 1454 1455 1456 1457 1459 1461 1462 1464 1466 1468 1471 1473 1476 1478 1481 1484 1489 1492 1496 1499 1502 1506 1509 1513 1516
1480 1477 1475 1472 1469 1467 1464 1462 1460 1457 1455 1454 1453 1452 1452 1451 1451 1451 1451 1451 1452 1453 1454 1456 1458 1459 1461 1464 1466 1469 1471 1474 1478 1481 1484 1486 1490 1494 1497 1501 1504 1507 1511
1479 1476 1474 1471 1468 1466 1463 1461 1458 1455 1454 1452 1451 1450 1449 1448 1448 1448 1447 1447 1448 1448 1450 1451 1453 1455 1457 1459 1461 1464 1466 1469 1472 1475 1478 1481 1485 1489 1493 1496 1500 1503 1506
1477 1475 1472 1470 1467 1465 1462 1459 1457 1454 1452 1450 1449 1448 1446 1445 1445 1444 1444 1443 1443 1444 1445 1446 1448 1450 1451 1453 1456 1458 1461 1463 1466 1470 1473 1477 1480 1484 1488 1492 1495 1498 1502